New Ulm, MN

1:17 AM CDT on March 25, 2017 (GMT -0500)
New Ulm Municipal

Weather History for KULM - December, 2012

Change the Weather History Date:

Thursday, December 6, 2012

  Actual Average Record
Temperature  
Mean Temperature 39 °F -  
Max Temperature 48 °F 28 °F 53 °F (1963)
Min Temperature 30 °F 11 °F -16 °F (2005)
Degree Days  
Heating Degree Days 26    
Moisture  
Dew Point 30 °F    
Average Humidity 61    
Maximum Humidity 81    
Minimum Humidity 50    
Precipitation  
Precipitation 0.00 in - - ()
Sea Level Pressure  
Sea Level Pressure 29.87 in    
Wind  
Wind Speed 16 mph (WNW)    
Max Wind Speed 25 mph    
Max Gust Speed 34 mph    
Visibility 10 miles    
Events Rain    
Averages and records for this station are not official NWS values.
T = Trace of Precipitation, MM = Missing Value Source: NWS Daily Summary

Daily Weather History Graph

Daily Weather History Graph

Search for Another Location

Airport or City:

Trip Planner

Search our weather history database for the weather conditions in past years. The results will help you decide how hot, cold, wet, or windy it might be!

Date:

Astronomy

Dec. 06, 2012 Rise Set
Actual Time 7:39 AM CST 4:38 PM CST
Civil Twilight 7:06 AM CST 5:11 PM CST
Nautical Twilight 6:30 AM CST 5:48 PM CST
Astronomical Twilight 5:55 AM CST 6:23 PM CST
Moon No Moon Rise 12:19 PM CST (12/6)
Length of Visible Light 10h 05m
Length of Day
8h 59m
Waning Gibbous, 49% of the Moon is Illuminated
Dec 6
Waning Gibbous
Dec 13
New
Dec 19
First Quarter
Dec 28
Full
Jan 4
Last Quarter

Hourly Weather History & Observations

Time (CST) Temp. Windchill Dew Point Humidity Pressure Visibility Wind Dir Wind Speed Gust Speed Precip Events Conditions
12:13 AM 46.4 °F 37.9 °F 30.2 °F 53% 29.77 in 10.0 mi South 25.3 mph 31.1 mph N/A   Scattered Clouds
12:52 AM 46.4 °F 39.0 °F 30.2 °F 53% 29.76 in 10.0 mi South 19.6 mph 29.9 mph N/A   Clear
1:13 AM 48.2 °F - 30.2 °F 50% 29.75 in 10.0 mi South 24.2 mph 34.5 mph N/A   Scattered Clouds
1:33 AM 48.2 °F - 30.2 °F 50% 29.75 in 10.0 mi South 21.9 mph 27.6 mph N/A   Scattered Clouds
1:52 AM 48.2 °F - 32.0 °F 54% 29.75 in 10.0 mi South 23.0 mph 28.8 mph N/A   Scattered Clouds
2:13 AM 46.4 °F 39.2 °F 33.8 °F 62% 29.76 in 10.0 mi South 18.4 mph 28.8 mph N/A   Light Drizzle
2:33 AM 46.4 °F 40.1 °F 33.8 °F 62% 29.77 in 10.0 mi South 15.0 mph - N/A   Mostly Cloudy
2:53 AM 46.4 °F 39.8 °F 33.8 °F 62% 29.76 in 10.0 mi South 16.1 mph - N/A   Mostly Cloudy
3:13 AM 46.4 °F 40.1 °F 33.8 °F 62% 29.76 in 10.0 mi South 15.0 mph - N/A   Mostly Cloudy
3:33 AM 46.4 °F 40.4 °F 33.8 °F 62% 29.76 in 10.0 mi South 13.8 mph - N/A   Scattered Clouds
3:53 AM 46.4 °F 40.7 °F 33.8 °F 62% 29.77 in 10.0 mi SSW 12.7 mph - N/A   Mostly Cloudy
4:13 AM 46.4 °F 40.4 °F 35.6 °F 66% 29.77 in 10.0 mi South 13.8 mph - N/A   Light Drizzle
4:33 AM 46.4 °F 40.7 °F 35.6 °F 66% 29.77 in 10.0 mi South 12.7 mph - N/A   Scattered Clouds
4:53 AM 46.4 °F 40.7 °F 35.6 °F 66% 29.77 in 10.0 mi SSW 12.7 mph - N/A   Mostly Cloudy
5:13 AM 46.4 °F 40.7 °F 35.6 °F 66% 29.78 in 10.0 mi SSW 12.7 mph 18.4 mph N/A   Mostly Cloudy
5:33 AM 44.6 °F 38.1 °F 37.4 °F 76% 29.78 in 10.0 mi SSW 13.8 mph - N/A Rain Light Rain
5:53 AM 44.6 °F 38.4 °F 37.4 °F 76% 29.78 in 10.0 mi SW 12.7 mph - N/A   Light Drizzle
6:13 AM 44.6 °F 38.4 °F 37.4 °F 76% 29.79 in 10.0 mi SW 12.7 mph - N/A   Light Drizzle
6:33 AM 44.6 °F 39.2 °F 37.4 °F 76% 29.79 in 10.0 mi SW 10.4 mph - N/A   Mostly Cloudy
6:53 AM 42.8 °F 38.0 °F 37.4 °F 81% 29.79 in 10.0 mi SSW 8.1 mph - N/A   Clear
7:13 AM 42.8 °F 38.0 °F 37.4 °F 81% 29.81 in 10.0 mi WSW 8.1 mph - N/A   Clear
7:32 AM 42.8 °F 37.5 °F 35.6 °F 76% 29.82 in 10.0 mi West 9.2 mph - N/A   Scattered Clouds
7:53 AM 42.8 °F 36.2 °F 33.8 °F 70% 29.83 in 10.0 mi WNW 12.7 mph - N/A   Scattered Clouds
8:13 AM 42.8 °F 35.1 °F 32.0 °F 66% 29.84 in 10.0 mi NW 16.1 mph 23.0 mph N/A   Clear
8:32 AM 44.6 °F 36.4 °F 30.2 °F 57% 29.84 in 10.0 mi NW 20.7 mph 26.5 mph N/A   Clear
8:53 AM 42.8 °F 35.8 °F 30.2 °F 61% 29.85 in 10.0 mi NW 13.8 mph 21.9 mph N/A   Clear
9:13 AM 41.0 °F 32.5 °F 30.2 °F 65% 29.86 in 10.0 mi WNW 17.3 mph 25.3 mph N/A   Clear
9:33 AM 41.0 °F 32.2 °F 30.2 °F 65% 29.87 in 10.0 mi NW 18.4 mph 23.0 mph N/A   Clear
9:53 AM 42.8 °F 34.0 °F 32.0 °F 66% 29.87 in 10.0 mi NW 20.7 mph 25.3 mph N/A   Clear
10:13 AM 41.0 °F 31.6 °F 30.2 °F 65% 29.87 in 10.0 mi NW 20.7 mph 27.6 mph N/A   Clear
10:33 AM 42.8 °F 33.5 °F 30.2 °F 61% 29.88 in 10.0 mi NW 23.0 mph - N/A   Clear
10:53 AM 44.6 °F 37.2 °F 30.2 °F 57% 29.89 in 10.0 mi NW 17.3 mph - N/A   Clear
11:13 AM 42.8 °F 34.0 °F 30.2 °F 61% 29.88 in 10.0 mi NW 20.7 mph 26.5 mph N/A   Clear
11:33 AM 44.6 °F 36.4 °F 30.2 °F 57% 29.88 in 10.0 mi NW 20.7 mph 26.5 mph N/A   Clear
11:53 AM 44.6 °F 36.9 °F 30.2 °F 57% 29.87 in 10.0 mi NW 18.4 mph 27.6 mph N/A   Clear
12:13 PM 44.6 °F 36.4 °F 30.2 °F 57% 29.87 in 10.0 mi NW 20.7 mph - N/A   Clear
12:33 PM 46.4 °F 38.5 °F 30.2 °F 53% 29.87 in 10.0 mi NW 21.9 mph - N/A   Clear
12:53 PM 46.4 °F 39.8 °F 30.2 °F 53% 29.88 in 10.0 mi NW 16.1 mph 21.9 mph N/A   Clear
1:13 PM 44.6 °F 36.6 °F 28.4 °F 53% 29.88 in 10.0 mi NW 19.6 mph - N/A   Clear
1:33 PM 44.6 °F 37.2 °F 30.2 °F 57% 29.88 in 10.0 mi NW 17.3 mph - N/A   Clear
1:53 PM 46.4 °F 39.8 °F 28.4 °F 50% 29.88 in 10.0 mi NW 16.1 mph - N/A   Clear
2:13 PM 44.6 °F 38.4 °F 28.4 °F 53% 29.88 in 10.0 mi NW 12.7 mph - N/A   Clear
2:32 PM 44.6 °F 39.2 °F 28.4 °F 53% 29.89 in 10.0 mi WNW 10.4 mph 13.8 mph N/A   Clear
2:53 PM 46.4 °F 40.7 °F 28.4 °F 50% 29.89 in 10.0 mi NW 12.7 mph - N/A   Clear
3:13 PM 44.6 °F 38.4 °F 28.4 °F 53% 29.90 in 10.0 mi NW 12.7 mph - N/A   Scattered Clouds
3:32 PM 44.6 °F 38.1 °F 28.4 °F 53% 29.91 in 10.0 mi NW 13.8 mph - N/A   Scattered Clouds
3:53 PM 42.8 °F 37.0 °F 28.4 °F 57% 29.92 in 10.0 mi NW 10.4 mph - N/A   Scattered Clouds
4:13 PM 42.8 °F 37.5 °F 28.4 °F 57% 29.92 in 10.0 mi WNW 9.2 mph - N/A   Scattered Clouds
4:33 PM 42.8 °F 37.5 °F 28.4 °F 57% 29.93 in 10.0 mi NW 9.2 mph - N/A   Clear
4:53 PM 42.8 °F 37.5 °F 28.4 °F 57% 29.93 in 10.0 mi NW 9.2 mph - N/A   Clear
5:13 PM 41.0 °F 34.7 °F 28.4 °F 61% 29.93 in 10.0 mi NW 10.4 mph - N/A   Clear
5:33 PM 41.0 °F 35.2 °F 28.4 °F 61% 29.94 in 10.0 mi NW 9.2 mph - N/A   Clear
5:53 PM 41.0 °F 33.9 °F 26.6 °F 57% 29.95 in 10.0 mi NW 12.7 mph 17.3 mph N/A   Clear
6:13 PM 39.2 °F 31.6 °F 26.6 °F 61% 29.95 in 10.0 mi NNW 12.7 mph - N/A   Clear
6:33 PM 39.2 °F 31.6 °F 26.6 °F 61% 29.95 in 10.0 mi NNW 12.7 mph - N/A   Clear
6:53 PM 39.2 °F 32.0 °F 26.6 °F 61% 29.95 in 10.0 mi NNW 11.5 mph - N/A   Clear
7:13 PM 37.4 °F 28.9 °F 24.8 °F 60% 29.96 in 10.0 mi NNW 13.8 mph - N/A   Scattered Clouds
7:33 PM 37.4 °F 28.9 °F 24.8 °F 60% 29.97 in 10.0 mi NNW 13.8 mph 20.7 mph N/A   Scattered Clouds
7:53 PM 35.6 °F 26.6 °F 23.0 °F 60% 29.98 in 10.0 mi NNW 13.8 mph 20.7 mph N/A   Clear
8:32 PM 35.6 °F 26.2 °F 21.2 °F 56% 29.98 in 10.0 mi NNW 15.0 mph - N/A   Clear
8:53 PM 35.6 °F 27.5 °F 21.2 °F 56% 29.99 in 10.0 mi NNW 11.5 mph 16.1 mph N/A   Scattered Clouds
9:13 PM 33.8 °F 26.4 °F 21.2 °F 60% 30.00 in 10.0 mi NNW 9.2 mph - N/A   Scattered Clouds
9:33 PM 33.8 °F 25.8 °F 21.2 °F 60% 30.00 in 10.0 mi NNW 10.4 mph - N/A   Scattered Clouds
9:53 PM 32.0 °F 25.6 °F 21.2 °F 64% 30.00 in 10.0 mi NNW 6.9 mph - N/A   Scattered Clouds
10:13 PM 32.0 °F 26.4 °F 21.2 °F 64% 30.00 in 10.0 mi NNW 5.8 mph - N/A   Scattered Clouds
10:53 PM 30.2 °F - 21.2 °F 69% 30.01 in 10.0 mi Calm Calm - N/A   Scattered Clouds
11:13 PM 30.2 °F - 21.2 °F 69% 30.00 in 10.0 mi Calm Calm - N/A   Mostly Cloudy
11:52 PM 30.2 °F - 21.2 °F 69% 30.01 in 10.0 mi Calm Calm - N/A   Mostly Cloudy